Flag for Poland Weather past 2 weeks in Warsaw, Poland

Now
28 °F

Clear.


Feels Like: 22 °F
Forecast: 34 / 52 °F
Wind: 6 mph from Southeast

Location: Warsaw Okecie Airport

Current Time: Oct 26, 2014 at 5:32:06 AM

Latest Report: Oct 26, 2014 at 5:00 AM


Visibility: 10 mi

Pressure: 30.36 "Hg

Humidity: 86%

Dew point: 25 °F

Location of WarsawLocation

Historic Weather in Warsaw — Graph

°F

Warsaw temperature yesterday

Maximum temperature yesterday: 39 °F (at 6:00 PM)
Minimum temperature yesterday: 27 °F (at 5:30 AM)
Average temperature yesterday: 33 °F

Past Weeks' High & Low Weather Summary

 TemperatureHumidityPressure
High72 °F (Oct 11, 1:30 PM)100% (Oct 11, 6:00 AM)30.39 "Hg (Oct 11, 6:00 AM)
Low27 °F (Oct 25, 5:30 AM)39% (Oct 24, 2:30 PM)29.56 "Hg (Oct 22, 4:30 AM)
Average50 °F85%29.96 "Hg
* Reported Oct 11 5:00 AM — Oct 26 4:30 AM, Warsaw, Weather by CustomWeather, © 2014

Note: Actual official high and low records may vary slightly from our data, if they occured in-between our weather recording intervals... More about our weather records

Advertising

Warsaw weather history for previous 24 hours

 ConditionsComfort  
Time TempWeatherWind HumidityBarometerVisibility
4:30 AM
Oct 26
28 °FClear.6 mph93%30.36 "Hg10 mi
4:00 AM28 °FClear.6 mph93%30.36 "Hg10 mi
3:30 AM28 °FClear.6 mph93%30.36 "Hg10 mi
3:00 AM28 °FClear.6 mph93%30.36 "Hg10 mi
2:30 AM30 °FClear.8 mph86%30.36 "Hg10 mi
2:00 AM30 °FClear.8 mph86%30.36 "Hg10 mi
2:30 AM30 °FClear.7 mph86%30.36 "Hg10 mi
1:30 AM30 °FClear.7 mph93%30.33 "Hg10 mi
1:00 AM30 °FClear.7 mph93%30.33 "Hg10 mi
12:30 AM32 °FClear.7 mph87%30.33 "Hg10 mi
12:00 AM32 °FClear.8 mph87%30.33 "Hg10 mi
11:30 PM
Oct 25
32 °FClear.6 mph93%30.33 "Hg10 mi
11:00 PM34 °FClear.8 mph87%30.33 "Hg10 mi
10:30 PM34 °FClear.6 mph87%30.33 "Hg10 mi
10:00 PM34 °FClear.3 mph87%30.33 "Hg10 mi
9:30 PM34 °FClear.2 mph87%30.33 "Hg10 mi
9:00 PM34 °FClear.2 mph87%30.33 "Hg10 mi
8:30 PM37 °FClear.2 mph81%30.33 "Hg10 mi
8:00 PM37 °FPassing clouds.6 mph81%30.33 "HgN/A
7:30 PM39 °FPassing clouds.6 mph75%30.33 "HgN/A
7:00 PM39 °FPassing clouds.7 mph75%30.33 "HgN/A
6:30 PM39 °FPassing clouds.8 mph75%30.33 "HgN/A
6:00 PM39 °FPartly sunny.8 mph75%30.33 "HgN/A
5:30 PM37 °FPartly sunny.9 mph81%30.33 "HgN/A
5:00 PM37 °FPartly sunny.13 mph75%30.30 "HgN/A
4:30 PM37 °FPartly sunny.15 mph81%30.33 "HgN/A
4:00 PM37 °FPartly sunny.14 mph75%30.33 "HgN/A
3:30 PM37 °FPartly sunny.15 mph75%30.30 "HgN/A
3:00 PM37 °FPartly sunny.14 mph75%30.33 "HgN/A
2:30 PM37 °FPartly sunny.16 mph75%30.33 "HgN/A
2:00 PM37 °FPartly sunny.15 mph75%30.33 "HgN/A
1:30 PM37 °FPartly sunny.14 mph70%30.33 "HgN/A
1:00 PM36 °FPartly sunny.15 mph75%30.33 "HgN/A
12:30 PM36 °FBroken clouds.14 mph75%30.33 "HgN/A
12:00 PM34 °FPartly sunny.14 mph75%30.33 "HgN/A
11:30 AM34 °FPartly sunny.14 mph75%30.33 "HgN/A
11:00 AM32 °FPartly sunny.14 mph75%30.33 "HgN/A
10:30 AM32 °FPartly sunny.14 mph75%30.33 "HgN/A
10:00 AM30 °FPartly sunny.13 mph75%30.33 "HgN/A
9:30 AM30 °FPartly sunny.13 mph69%30.33 "HgN/A
9:00 AM28 °FPartly sunny.13 mph74%30.33 "HgN/A
8:30 AM28 °FPartly sunny.14 mph69%30.33 "HgN/A
8:00 AM27 °FPassing clouds.13 mph74%30.33 "HgN/A
7:30 AM27 °FClear.13 mph69%30.33 "Hg10 mi
7:00 AM27 °FClear.13 mph69%30.33 "Hg10 mi
6:30 AM27 °FClear.13 mph69%30.33 "Hg10 mi
6:00 AM27 °FClear.13 mph69%30.33 "Hg10 mi
5:30 AM27 °FClear.12 mph69%30.33 "Hg10 mi
5:00 AM28 °FClear.10 mph64%30.36 "Hg10 mi
Weather by CustomWeather, © 2014

See weather overviewHow to use our weather pages